[Iaude] MPEC M09: 2022 MB [a=1.58,e=0.34,i=10.7,H=24.1]

mpec at marsden.cfa.harvard.edu mpec at marsden.cfa.harvard.edu
Sat Jun 18 01:49:10 EDT 2022


M.P.E.C. 2022-M09                                 Issued 2022 June 18, 05:47 UT

     The Minor Planet Electronic Circulars contain information on unusual
         minor planets and routine data on comets.  They are published
    on behalf of Division F of the International Astronomical Union by the
          Minor Planet Center, Smithsonian Astrophysical Observatory,
                          Cambridge, MA 02138, U.S.A.

             Prepared using the Tamkin Foundation Computer Network

                              MPC at CFA.HARVARD.EDU
            URL https://www.minorplanetcenter.net/    ISSN 1523-6714

                                    2022 MB                                     


Observations:
     K22M00B* C2022 06 16.22637213 23 08.675+01 30 53.53         19.39GVEM009G96
     K22M00B  C2022 06 16.23151313 23 12.095+01 32 10.46         19.46GVEM009G96
     K22M00B  C2022 06 16.23665913 23 15.558+01 33 27.25         19.35GVEM009G96
     K22M00B  C2022 06 16.24180613 23 19.010+01 34 43.14         19.32GVEM009G96
     K22M00B KC2022 06 16.28723913 23 50.003+01 46 02.93         19.28GVEM009I52
     K22M00B KC2022 06 16.28797513 23 50.500+01 46 14.02         18.97GVEM009I52
     K22M00B KC2022 06 16.28871313 23 51.022+01 46 24.89         19.08GVEM009I52
     K22M00B KC2022 06 16.28945013 23 51.529+01 46 36.08         19.19GVEM009I52
     K22M00B KC2022 06 16.74627 13 29 42.20 +03 45 25.4          19.0 GVEM009221
     K22M00B KC2022 06 16.75207 13 29 46.13 +03 46 54.9          19.6 GVEM009221
     K22M00B KC2022 06 16.75756 13 29 49.85 +03 48 18.7          19.6 GVEM009221
     K22M00B HC2022 06 16.80488 13 30 22.05 +04 00 29.0          20   GVEM009M21
     K22M00B KC2022 06 16.86956013 31 08.69 +04 13 32.1          19.2 GVEM009104
     K22M00B KC2022 06 16.87534313 31 12.80 +04 15 01.3          19.6 GVEM009104
     K22M00B KC2022 06 16.88112513 31 16.88 +04 16 31.2          19.5 GVEM009104
     K22M00B KC2022 06 16.89129613 31 25.81 +04 19 11.1          19.2 GXEM009958
     K22M00B KC2022 06 16.89640813 31 29.47 +04 20 30.0          19.3 GXEM009958
     K22M00B KC2022 06 16.90161613 31 33.10 +04 21 49.9          19.0 GXEM009958
     K22M00B KC2022 06 16.91160313 31 48.122+04 27 55.04         20.4 GXEM009Y00
     K22M00B KC2022 06 16.91622 13 31 42.40 +04 25 29.8                VEM009204
     K22M00B KC2022 06 16.91795913 31 52.481+04 29 34.15         19.8 GXEM009Y00
     K22M00B KC2022 06 16.92431413 31 56.818+04 31 12.54         20.6 GXEM009Y00
     K22M00B KC2022 06 16.93147 13 31 53.40 +04 29 25.8          19.5 GVEM009204
     K22M00B KC2022 06 16.94632113 32 04.13 +04 33 16.7          19.4 GVEM009203
     K22M00B KC2022 06 16.96103513 32 14.89 +04 37 04.9          19.5 GVEM009203
     K22M00B KC2022 06 17.12597 13 34 27.73 +05 20 27.3          19.6 RqEM009H36
     K22M00B KC2022 06 17.12861 13 34 29.67 +05 21 07.4          19.5 RqEM009H36
     K22M00B KC2022 06 17.13125 13 34 31.57 +05 21 50.8          19.6 RqEM009H36
     K22M00B KC2022 06 17.13389 13 34 33.40 +05 22 32.1          19.4 RqEM009H36
     K22M00B KC2022 06 17.85662513 44 07.674+08 34 16.40         19.5 GVEM009K63
     K22M00B KC2022 06 17.86103413 44 10.975+08 35 27.55         19.6 GVEM009K63
     K22M00B KC2022 06 17.86563913 44 14.485+08 36 41.55         19.6 GVEM009K63
     K22M00B KC2022 06 17.89158113 44 34.680+08 43 23.59         19.4 GVEM009K74
     K22M00B KC2022 06 17.90601513 44 45.850+08 47 16.26         19.3 GVEM009K74
     K22M00B KC2022 06 17.94095913 45 14.520+08 56 37.72         19.7 GVEM009J95
     K22M00B KC2022 06 17.94885913 45 20.657+08 58 45.70         19.3 GVEM009J95
     K22M00B KC2022 06 17.97200 13 45 36.52 +09 05 15.2          19.6 GVEM009K83
     K22M00B KC2022 06 17.99064 13 45 51.29 +09 10 14.3          19.2 GVEM009K83

Observer details:
104 San Marcello Pistoiese.  Observers P. Bacci, M. Maestripieri.  Measurers
    P. Bacci, L. Tesi, G. Fagioli.  0.60-m F4 Reflector + CCD.
203 GiaGa Observatory.  Observers S. Foglia, G. Galli.  Measurer G. Galli.
    0.36-m f/5.76 Schmidt-Cassegrain + CCD.
204 Schiaparelli Observatory.  Observer L. Buzzi.  0.84-m f/3.5 reflector +
    CCD.
221 IAS Observatory, Hakos.  Observer D. Husar.  0.20-m f/2.8 reflector + CCD.
958 Observatoire de Dax.  Observer P. Dupouy.  0.50-m f/4.5 Reflector + CCD.
G96 Mt. Lemmon Survey.  Observer A. Serrano.  Measurers E. J. Christensen, D.
    Fay, J. B. Fazekas, D. C. Fuls, A. R. Gibbs, A. D. Grauer, H. Groeller, J.
    K. Hogan, R. A. Kowalski, S. M. Larson, G. J. Leonard, D. Rankin, R. L.
    Seaman, A. Serrano, F. C. Shelly, K. W. Wierzchos.  1.5-m reflector + 10K
    CCD.
H36 Sandlot Observatory, Scranton.  Observer G. Hug.  .56 meter Reflector +
    CCD.
I52 Steward Observatory, Mt. Lemmon Station.  Observer D. Rankin.  Measurers
    E. J. Christensen, D. Fay, J. B. Fazekas, D. C. Fuls, A. R. Gibbs, A. D.
    Grauer, H. Groeller, J. K. Hogan, R. A. Kowalski, S. M. Larson, G. J.
    Leonard, D. Rankin, R. L. Seaman, A. Serrano, F. C. Shelly, K. W.
    Wierzchos.  1.0-m prime focus + CCD.
J95 Great Shefford.  Observer P. Birtwhistle.  0.41-m f/6.3 Schmidt-Cassegrain
    + CCD.
K63 G. Pascoli Observatory, Castelvecchio Pascoli.  Observer R. Bacci.  0.41-m
    f/3.21 0.41m f/3.2  Newton + CCD.
K74 Muensterschwarzach Observatory, Schwarzach.  Observer C. Gerhard.  0.30-m
    f/3.75 0.30-m f/3.75 reflector + CCD.
K83 Beppe Forti Astronomical Observatory, Montelupo.  Observers M. Tombelli,
    A. Squilloni, S. Morelli, M. Iozzi, G. Interrante, A. Mazzanti.  Measurers
    M. Tombelli, F. Bernardi.  0.40-m f/8 Ritchey-Chretien + CCD.
M21 Schiaparelli Southern Observatory, Hakos.  Observers A. Aletti, F.
    Bellini, L. Buzzi, G. Galli.  Measurer L. Buzzi.  0.36-m f/8.4 reflector +
    CCD.
Y00 SONEAR Observatory, Oliveira.  Observer C. Jacques.  0.45-m f/2.9 0.45-m
    f/2.9 reflector + CCD.

Orbital elements:
2022 MB                                                  Earth MOID = 0.0203 AU
Epoch 2022 Aug. 9.0 TT = JDT 2459800.5                  Veres                   
M  23.61668              (2000.0)            P               Q                  
n   0.49842022     Peri.    9.23818     -0.01138715     +0.98314885             
a   1.5754536      Node   260.26607     -0.92883864     -0.07797235             
e   0.3444776      Incl.   10.66795     -0.37030950     +0.16534404             
P   1.98           H   24.14          G   0.15           U   7                  
Residuals in seconds of arc
220616 G96  0.2+  0.2-    220616 104  0.1-  0.0     220617 H36  0.4+  0.8-
220616 G96  0.2-  0.0     220616 104  0.4-  0.4+    220617 H36  0.7+  1.2+
220616 G96  0.0   0.0     220616 958  0.7-  0.9+    220617 H36  0.0   1.1+
220616 G96 (0.2-  0.9-)   220616 958  0.0   0.7+    220617 K63  1.4+  0.4-
220616 I52  0.2+  0.1-    220616 958  0.8-  0.1-    220617 K63  0.9+  0.3-
220616 I52  0.1+  0.0     220616 Y00  0.5+  0.2+    220617 K63  1.2+  0.5-
220616 I52  0.2+  0.2-    220616 204  0.2-  0.2+    220617 K74  0.3-  0.7-
220616 I52  0.2+  0.0     220616 Y00  0.3+  0.4+    220617 K74  0.3+  0.5-
220616 221  0.3+  0.5+    220616 Y00  0.2-  0.1-    220617 J95  0.1-  0.2-
220616 221  0.1+  0.6+    220616 204  0.3-  0.1-    220617 J95  0.3-  0.5+
220616 221  0.1-  0.3-    220616 203  0.1-  0.2-    220617 K83  0.4+  0.7+
220616 M21  0.1+  0.3-    220616 203  0.1-  0.1-    220617 K83  0.1-  0.0
220616 104  0.3-  0.2+    220617 H36  0.6-  0.5+

Ephemeris:
2022 MB                  a,e,i = 1.58, 0.34, 11                  q = 1.0327
Date    TT    R. A. (2000) Decl.     Delta      r    Elong.  Phase     V
2022 05 19    11 11 03.8 -40 29 07   0.1397  1.0869   119.4    54.2    22.0
...
2022 06 03    11 44 40.7 -30 06 09   0.08331 1.0507   113.9    62.0    21.1
...
2022 06 11    12 31 21.6 -16 01 33   0.05693 1.0391   113.3    63.8    20.3
...
2022 06 17    13 32 52.0 +04 49 14   0.04414 1.0342   113.4    64.3    19.7
2022 06 18    13 46 07.5 +09 14 42   0.04313 1.0337   113.2    64.6    19.7
2022 06 19    14 00 18.0 +13 47 44   0.04253 1.0333   112.9    64.9    19.7
...
2022 06 25    15 40 33.7 +37 46 55   0.04769 1.0330   109.0    68.5    20.0
...
2022 07 03    17 48 18.4 +50 10 24   0.07010 1.0379   105.7    70.6    20.9
...
2022 07 18    19 43 04.5 +50 17 01   0.1247  1.0627   108.6    65.0    22.1

M. P. C. Staff               (C) Copyright 2022 MPC           M.P.E.C. 2022-M09




More information about the Iaude mailing list